Regional Weather Roundup
Issued by NWS

Home | Current Version | Previous Version | Graphics & Text | Print | Product List | Glossary On
Versions: 1 2 3 4 5 6 7 8 9 10 11 12 13 14 15 16 17 18 19 20 21 22 23 24 25 26 27 28 29 30 31 32 33 34 35 36 37 38 39 40 41 42 43 44 45 46 47 48 49 50
000
ASUS45 KBOU 240510
RWRCO

WEATHER ROUNDUP FOR COLORADO
NATIONAL WEATHER SERVICE DENVER/BOULDER CO
1000 PM MST TUE JAN 23 2018

NOTE: "FAIR" INDICATES FEW OR NO CLOUDS BELOW 12000 FEET WITH NO
SIGNIFICANT WEATHER AND/OR OBSTRUCTIONS TO VISIBILITY.

COZ001>005-013-030-031-240600-
...NORTHWEST COLORADO...

CITY           SKY/WX    TMP DP  RH WIND       PRES   REMARKS
CRAIG          FAIR       5   0  79 CALM      30.35S
HAYDEN         FAIR      12   8  84 SE9       30.35S WCI   0
MEEKER         FAIR      11   7  84 NE5       30.35R WCI   3
RABBIT EARS PA FAIR     N/A N/A N/A SW5       30.24R
STEAMBOAT SPGS FAIR      10   7  91 CALM      30.34S
WALDEN         FAIR      12   5  73 SE9       30.27S WCI   0
$$

COZ006>008-011-240600-
...WEST CENTRAL VALLEYS...

CITY           SKY/WX    TMP DP  RH WIND       PRES   REMARKS
GRAND JUNCTION FAIR      18  14  84 E5        30.39R WCI  11
MONTROSE       FAIR      20  10  65 SE10      30.42R WCI   9
EAGLE          FAIR      16   9  74 SE5       30.40R WCI   9
RIFLE          FAIR      24  16  71 CALM      30.40R
DELTA          FAIR      24  14  64 NE3       30.42R
NUCLA          FAIR      23  16  74 SE9       30.42R WCI  13
$$

COZ017>023-064>068-240600-
...SOUTHWEST COLORADO...

CITY           SKY/WX    TMP DP  RH WIND       PRES   REMARKS
DURANGO        FAIR      17  13  84 NE5       30.37R WCI  10
CORTEZ         FAIR      17  14  88 E8        30.38R WCI   7
PAGOSA SPRINGS FAIR      13  11  93 CALM      30.36R
TELLURIDE      FAIR      17   7  65 SE7       30.37R WCI   7
WOLF CREEK PAS FAIR      14   0  52 SW9       30.37R WCI   2
$$

COZ009-010-012-014-032>034-037-058>063-240600-
...CENTRAL COLORADO...

CITY           SKY/WX    TMP DP  RH WIND       PRES   REMARKS
ASPEN          FAIR      15   5  64 SW8       30.34S WCI   4
BUENA VISTA    FAIR      14   2  59 S5        30.30R WCI   7
COPPER MTN     NOT AVBL
BERTHOUD PASS  FAIR       3  -8  60 NW41G47   30.15S WCI -25
COTTONWOOD PAS FAIR      28   3  34 W10G16    30.27R WCI  19
GUNNISON       FAIR       5   1  83 NE3       30.39R
KREMMLING      FAIR      10   5  79 CALM      30.36R
LEADVILLE      FAIR       5  -1  76 NE9       30.27S WCI  -9
MONARCH PASS   FAIR       9   5  85 W37       30.34S WCI -16
SALIDA         FAIR      26   9  47 W12G18    30.37S WCI  16
SUNLIGHT       FAIR      10   5  79 SW9       30.34S WCI  -2
WILKERSON PASS FAIR      12   0  57 W10G16    30.24S WCI  -1
$$

COZ069>075-240600-
...SAN LUIS VALLEY/SANGRE DE CRISTO MOUNTAINS...

CITY           SKY/WX    TMP DP  RH WIND       PRES   REMARKS
ALAMOSA        FAIR       8   2  76 N6        30.33R WCI  -2
DEL NORTE      FAIR      11  -2  56 W6        30.34R WCI   2
LA VETA PASS   FAIR      18   3  53 SW29G40     N/A  WCI  -2
SAGUACHE       FAIR      12   5  73 N7        30.35R WCI   2
$$

COZ035-036-038>040-240600-
...NORTHERN COLORADO FRONT RANGE...

CITY           SKY/WX    TMP DP  RH WIND       PRES   REMARKS
DENVER INTL AP FAIR      17   7  64 S13       30.26S WCI   4
DMNS CITY PARK NOT AVBL
AURORA         CLEAR     22  11  60 SE13      30.25S WCI  10
FRONT RANGE AP FAIR      17  10  74 S8        30.27S WCI   7
ERIE MUNI ARPT FAIR      20  12  71 CALM      30.32F
BOULDER MUN AP FAIR      27  14  59 NW3       30.26S
CENTENNIAL     FAIR      21   9  59 S8        30.25R WCI  11
BROOMFIELD     PTCLDY    23  12  63 N6        30.25S WCI  16
FORT COLLINS   FAIR      23  15  71 S3        30.28F
LONGMONT       FAIR      20  13  73 NW3       30.29S
$$

COZ041-046-047-076>085-087-088-240600-
...PIKES PEAK/PALMER DIVIDE AND SOUTHERN FOOTHILLS...

CITY           SKY/WX    TMP DP  RH WIND       PRES   REMARKS
COLO. SPRINGS  FAIR      23   9  55 NE6       30.29R WCI  16
A. F. ACADEMY  FAIR      15   6  68 N6        30.26S WCI   6
SCHRIEVER AFB  FAIR      21  11  66 N5        30.29R WCI  14
CHEYENNE MTN   FAIR      23   7  50 CALM      30.21S
ELLICOTT         N/A    N/A N/A N/A SE8       30.27R
FALCON         FAIR      13   6  73 CALM      30.28R
FORT CARSON    FAIR      19   7  58 N5        30.27R WCI  12
LIMON          FAIR       6   4  91 N6        30.30R WCI  -4
MONUMENT HILL  FAIR      18   5  57 S9        30.25S WCI   6
CANON CITY     FAIR      27  14  59 NW7       30.28R WCI  19
WALSENBURG     NOT AVBL
TRINIDAD       FAIR      27   7  42 W3        30.27S
$$

COZ042>045-048>051-090-091-240600-
...NORTHEAST COLORADO...

CITY           SKY/WX    TMP DP  RH WIND       PRES   REMARKS
GREELEY ARPT   FAIR      19  14  81 SW3       30.29S
AKRON          FAIR      18  11  74 SW10      30.29R WCI   6
BURLINGTON     FAIR      13   8  81 W9        30.32R WCI   1
WRAY           FAIR      19  14  79 W6        30.31F WCI  11
YUMA           FAIR      12   9  85 W9        30.30S WCI   0
STERLING       FAIR      14  12  92 SW5       30.29S WCI   6
HOLYOKE        FAIR      18  10  73 SW7       30.30S WCI   8
FORT MORGAN    FAIR      22  13  67 S5        30.29F WCI  16
$$

COZ086-089-092>099-240600-
...SOUTHEAST COLORADO...

CITY           SKY/WX    TMP DP  RH WIND       PRES   REMARKS
PUEBLO         FAIR      22  11  62 CALM      30.29R
LA JUNTA       FAIR      24  13  62 E8        30.31R WCI  15
LAMAR          FAIR      21  13  71 CALM      30.33R
SPRINGFIELD      N/A     16  10  77 SW7       30.34R WCI   6
$$



USA.gov is the U.S. government's official web portal to all federal, state and local government web resources and services.